Weather History for Laramie, WY

Change the Weather History Date:

Tuesday, May 21, 2013

  Actual Average Record
Temperature  
Mean Temperature 45 °F 49 °F  
Max Temperature 58 °F 63 °F 80 °F (1964)
Min Temperature 32 °F 35 °F 17 °F (2001)
Degree Days  
Heating Degree Days 20 16  
Month to date heating degree days 395 399  
Since 1 July heating degree days 8335 8448  
Cooling Degree Days 0 0  
Month to date cooling degree days 0 0  
Year to date cooling degree days 0 0  
Moisture  
Dew Point 29 °F    
Average Humidity 60    
Maximum Humidity 89    
Minimum Humidity 30    
Precipitation  
Precipitation 0.00 in 0.06 in 1.12 in (1992)
Month to date precipitation 0.72 1.05  
Year to date precipitation 2.70 3.31  
Sea Level Pressure  
Sea Level Pressure 29.92 in    
Wind  
Wind Speed 14 mph (NW)    
Max Wind Speed 29 mph    
Max Gust Speed 37 mph    
Visibility 10 miles    
Events      
T = Trace of Precipitation, MM = Missing Value Source: NWS Daily Summary

Daily Weather History Graph

Daily Weather History Graph

Search for Another Location

Airport:

Trip Planner

Search our weather history database for the weather conditions in past years. The results will help you decide how hot, cold, wet, or windy it might be!

Date:

Astronomy

May. 21, 2013 Rise Set
Actual Time 5:38 AM MDT 8:20 PM MDT
Civil Twilight 5:06 AM MDT 8:52 PM MDT
Nautical Twilight 4:26 AM MDT 9:33 PM MDT
Astronomical Twilight 3:40 AM MDT 10:19 PM MDT
Moon 4:35 PM MDT (5/21) 3:10 AM MDT (5/21)
Length of Visible Light 15h 46m
Length of Day
14h 42m
Waxing Gibbous, 84% of the Moon is Illuminated
May 21
Waxing Gibbous
May 24
Full
May 31
Last Quarter
Jun 8
New
Jun 16
First Quarter

Hourly Weather History & Observations

Time (MDT) Temp. Windchill Dew Point Humidity Pressure Visibility Wind Dir Wind Speed Gust Speed Precip Events Conditions
12:53 AM 37.9 °F 30.9 °F 34.0 °F 86% 29.97 in - NNW 10.4 mph - N/A   Overcast
1:53 AM 37.9 °F 30.0 °F 33.1 °F 83% 29.97 in - NNW 12.7 mph - N/A   Overcast
2:53 AM 36.0 °F 28.0 °F 32.0 °F 86% 29.98 in - NNW 11.5 mph - N/A   Mostly Cloudy
3:53 AM 35.1 °F 27.4 °F 32.0 °F 89% 29.97 in - NNW 10.4 mph - N/A   Mostly Cloudy
4:53 AM 35.1 °F 27.4 °F 30.0 °F 82% 29.99 in - NW 10.4 mph - N/A   Mostly Cloudy
5:53 AM 33.1 °F 26.1 °F 26.1 °F 75% 30.00 in - NW 8.1 mph - N/A   Scattered Clouds
6:10 AM 33.8 °F 27.0 °F 26.6 °F 75% 30.08 in - NW 8.1 mph - N/A   Mostly Cloudy
6:45 AM 33.8 °F 26.4 °F 26.6 °F 75% 30.09 in - WNW 9.2 mph - N/A   Scattered Clouds
6:53 AM 34.0 °F 25.5 °F 26.1 °F 73% 30.01 in - NW 11.5 mph - N/A   Scattered Clouds
7:53 AM 39.9 °F 30.5 °F 28.9 °F 65% 29.99 in - NW 19.6 mph - N/A   Mostly Cloudy
8:53 AM 43.0 °F 35.1 °F 30.9 °F 62% 29.99 in - NW 17.3 mph 20.7 mph N/A   Scattered Clouds
9:53 AM 45.0 °F 37.9 °F 30.0 °F 56% 29.96 in - North 16.1 mph 21.9 mph N/A   Clear
10:53 AM 48.9 °F - 30.9 °F 50% 29.92 in - NW 20.7 mph 27.6 mph N/A   Clear
11:53 AM 53.1 °F - 28.9 °F 40% 29.88 in 10.0 mi NW 23.0 mph 29.9 mph N/A   Partly Cloudy
12:53 PM 54.0 °F - 28.0 °F 37% 29.86 in 10.0 mi North - - N/A   Scattered Clouds
1:53 PM 55.0 °F - 27.0 °F 34% 29.84 in 10.0 mi NW 21.9 mph 32.2 mph N/A   Scattered Clouds
2:53 PM 57.0 °F - 27.0 °F 32% 29.84 in 10.0 mi NW 23.0 mph 28.8 mph N/A   Scattered Clouds
3:53 PM 55.9 °F - 27.0 °F 33% 29.83 in 10.0 mi WNW 20.7 mph 29.9 mph N/A   Mostly Cloudy
4:53 PM 55.0 °F - 28.0 °F 35% 29.83 in 10.0 mi NW 21.9 mph 29.9 mph N/A   Mostly Cloudy
5:53 PM 55.0 °F - 28.0 °F 35% 29.84 in 10.0 mi NNW 15.0 mph - N/A   Overcast
6:53 PM 55.0 °F - 27.0 °F 34% 29.83 in 10.0 mi NW 13.8 mph - N/A   Overcast
7:53 PM 53.1 °F - 28.0 °F 38% 29.82 in 10.0 mi West 11.5 mph - N/A   Scattered Clouds
8:53 PM 46.9 °F - 28.9 °F 50% 29.85 in 10.0 mi NNW 6.9 mph - N/A   Clear
9:53 PM 46.9 °F - 28.9 °F 50% 29.85 in 10.0 mi NNW 5.8 mph - N/A   Mostly Cloudy
10:53 PM 43.0 °F 37.7 °F 33.1 °F 68% 29.85 in 10.0 mi ESE 9.2 mph - N/A   Overcast
11:53 PM 37.9 °F 32.7 °F 30.9 °F 76% 29.85 in 10.0 mi SE 6.9 mph - N/A   Clear